RH
68 72 76 78 80 76 72 78 87 91 93 95 92 89 88 90 91 93 97 99 101 103 104 103 102 102 102 100 95 92 89 88 86 86 91 98 103 105 103 104 100 87 75 70 69 69 71 73 74 74 72 69 65 62 61 59 54 44 32 22 16 14 15 17 20 23 27 29 30 31 31 30 30 31 31 32 33 33 32 32 32 33 33 33 32 31 31 29
72 73 76 80 83 82 80 79 81 83 85 87 84 86 91 92 93 98 103 105 107 108 108 107 106 106 104 103 100 98 94 91 91 95 102 105 104 105 104 102 94 79 69 66 67 70 73 74 72 69 64 62 60 57 51 40 29 18 15 16 20 25 27 29 31 33 33 32 32 32 31 29 28 28 29 30 31 31 30 30 30 31 32 33 34 34 34 35
70 73 77 80 83 85 86 84 82 81 81 80 78 84 90 93 97 102 103 103 105 106 107 108 108 107 107 108 106 102 97 97 100 103 106 105 105 106 102 97 87 75 68 68 72 74 73 69 65 63 60 55 46 35 24 16 15 18 24 29 32 34 34 33 32 31 29 29 29 29 29 28 27 27 28 29 29 30 29 29 29 29 29 30 31 30 31 31
64 70 76 78 81 84 85 87 84 80 77 74 76 83 89 96 101 100 96 97 101 104 107 109 110 110 111 111 110 106 104 105 105 104 105 104 103 100 95 88 78 70 69 72 73 69 66 65 63 58 46 32 21 17 18 23 28 31 32 33 32 31 30 29 28 28 27 27 27 27 28 27 27 26 26 26 27 28 28 29 29 29 30 30 31 31 31 30
60 63 73 76 79 81 82 84 79 76 74 73 79 86 94 105 106 99 99 103 104 107 110 111 111 111 109 107 109 108 105 106 105 102 101 99 96 91 84 77 72 72 73 71 68 67 65 59 47 32 22 19 23 28 32 34 33 32 30 28 27 27 27 26 26 25 24 23 22 21 21 20 20 20 19 19 19 19 19 21 22 23 24 25 26 28 29 30
59 61 71 75 80 83 83 81 77 78 78 80 85 92 104 113 107 102 108 111 107 107 107 106 105 106 105 103 105 105 104 104 100 96 95 92 87 81 77 74 73 72 70 70 69 63 48 33 24 22 27 32 34 34 33 30 28 27 26 25 24 22 21 20 19 18 17 17 16 16 17 17 17 18 17 16 16 15 16 16 17 17 17 17 18 19 20 22
59 66 73 76 81 83 84 82 81 83 83 86 92 100 108 109 104 106 113 112 107 104 102 102 101 103 105 103 104 102 100 98 95 94 91 86 81 78 76 73 73 73 72 67 52 36 25 24 29 33 34 32 30 28 26 25 23 22 20 18 17 16 15 15 16 16 17 18 18 19 20 20 21 22 22 21 20 19 20 20 20 20 20 20 19 18 18 17
57 71 77 79 82 82 82 82 84 86 87 93 101 106 105 103 105 108 111 108 104 102 100 102 102 103 105 104 101 98 95 95 93 90 85 82 79 77 76 76 77 71 57 39 27 25 29 32 32 30 27 25 24 22 20 18 16 16 15 16 17 18 18 19 21 21 22 22 23 23 24 25 26 27 27 26 25 24 25 25 25 26 26 26 26 25 24 22
50 69 78 82 81 78 79 84 88 90 93 101 105 104 102 105 109 107 106 105 104 105 104 106 105 105 105 101 96 94 93 90 88 86 84 82 80 81 82 79 66 45 30 26 30 33 32 29 26 24 23 20 18 16 16 17 17 18 20 21 22 23 23 23 24 24 24 24 24 25 25 27 28 28 27 26 26 26 26 26 27 27 28 29 30 29 29 29
39 58 72 76 72 72 82 91 94 95 101 105 103 102 104 109 110 106 106 106 105 104 104 105 107 105 100 95 91 90 89 88 88 87 84 85 87 85 73 54 36 28 31 33 32 29 26 24 22 19 17 16 17 18 20 20 21 21 22 22 23 23 23 23 24 24 24 24 24 25 25 27 29 29 27 26 26 26 26 26 26 26 27 28 28 28 28 29
34 51 64 65 69 81 92 96 97 101 105 103 102 106 109 109 107 104 102 100 99 99 102 103 102 99 95 93 91 91 92 92 92 90 91 92 82 62 42 32 31 33 33 29 25 23 21 19 17 18 18 19 20 20 20 20 20 20 20 21 22 23 22 23 25 25 24 23 24 25 26 28 30 30 28 27 27 27 26 26 26 26 27 27 27 26 26 27
37 50 59 66 80 94 99 98 99 104 104 104 109 109 106 105 103 100 97 96 97 100 102 103 102 99 98 97 96 96 96 95 95 95 89 72 50 35 33 34 33 29 25 23 22 19 18 18 19 20 20 19 19 20 20 21 22 22 22 23 25 26 26 27 28 29 29 28 28 28 28 32 33 30 30 30 31 30 29 28 28 28 29 29 28 27 27 27
41 49 58 71 87 98 100 98 101 105 106 110 114 106 102 104 102 99 98 100 101 103 107 109 107 103 102 101 100 99 98 99 95 80 60 41 34 34 34 30 25 23 22 20 19 19 20 20 20 20 20 21 21 22 23 25 26 26 27 28 29 31 30 30 30 31 31 31 33 32 32 38 40 36 36 38 39 39 37 36 35 34 34 32 31 30 29 28
42 48 56 67 79 89 94 98 103 108 108 111 111 105 105 106 105 105 104 105 104 106 111 112 108 105 105 103 101 101 100 91 72 50 37 34 34 31 26 23 22 20 19 19 20 21 20 20 21 23 23 24 25 26 27 29 30 30 31 31 32 34 35 34 33 34 35 35 37 36 36 42 45 43 42 43 43 44 44 42 40 38 36 35 34 33 32 32
44 49 54 60 70 81 94 104 108 109 109 109 108 107 110 110 109 109 106 105 103 103 107 108 106 105 104 103 101 95 81 61 43 35 33 31 27 24 22 21 19 19 20 20 21 20 21 22 23 23 24 25 26 27 28 30 32 32 34 35 36 37 38 39 36 35 35 35 36 35 34 37 39 39 40 40 41 42 42 42 40 39 39 38 38 37 36 35
47 51 56 64 74 86 98 105 106 107 108 109 110 112 112 111 109 106 103 101 101 101 103 104 104 105 105 100 85 66 49 38 34 32 28 24 22 21 20 20 20 20 20 20 21 21 22 22 23 23 25 26 26 28 29 31 33 33 34 36 36 35 36 37 37 34 32 32 32 31 30 30 32 32 33 35 36 37 38 38 38 38 39 39 39 38 37 36
51 57 64 73 82 91 96 101 104 106 107 109 113 112 109 107 103 101 100 100 101 102 103 104 105 103 92 74 54 41 36 33 30 25 22 21 21 20 21 21 21 20 20 20 21 21 22 24 25 27 28 30 31 32 32 32 33 34 34 35 36 36 36 37 39 38 35 35 34 33 30 28 28 27 27 28 28 29 30 30 31 32 33 33 33 33 32 32
60 66 73 79 85 91 96 103 107 106 106 109 110 106 103 101 100 100 101 101 102 104 106 104 96 80 60 45 37 34 30 26 23 21 21 21 21 21 20 20 19 20 20 20 21 22 25 26 27 29 31 32 33 34 34 34 35 36 38 39 40 41 41 40 40 39 37 38 38 36 34 34 33 32 30 27 26 25 25 25 25 25 25 25 25 25 25 25
68 73 78 83 89 96 103 108 106 103 105 107 104 101 100 100 101 101 101 102 106 106 100 85 66 50 40 35 31 27 24 22 22 21 21 21 21 20 19 19 20 20 21 23 25 26 27 29 30 32 33 33 34 35 35 35 35 36 37 38 39 39 39 38 37 36 33 36 38 36 34 36 35 35 33 29 28 27 26 24 23 22 21 21 21 21 21 21
74 79 84 92 99 104 106 106 103 102 103 102 100 100 101 102 101 102 104 105 101 89 72 54 42 37 33 29 25 23 23 22 21 21 21 20 19 18 19 20 21 22 24 26 28 30 32 32 32 33 33 34 34 34 34 35 34 34 36 37 36 35 36 35 34 34 31 31 32 31 30 29 28 28 27 25 26 25 24 22 21 20 19 19 19 19 20 20
80 87 95 103 106 105 105 105 103 101 99 100 102 103 103 101 102 106 103 91 73 56 44 38 34 30 26 23 22 22 22 22 21 20 18 18 18 18 20 21 24 26 27 28 30 32 33 32 32 33 33 34 35 37 37 36 34 33 35 36 35 33 35 37 34 31 29 27 27 27 26 25 23 23 22 22 22 22 20 20 19 18 18 18 18 18 17 17
90 98 104 107 106 104 103 102 100 101 103 104 105 103 103 104 103 95 77 58 46 39 35 32 27 24 23 22 22 22 21 20 19 18 18 18 19 20 22 24 26 27 27 28 29 32 33 34 35 35 35 36 37 38 39 39 36 33 34 35 36 34 34 38 40 35 30 26 25 26 25 23 21 20 20 20 20 18 17 17 17 16 16 16 16 16 16 15
99 104 107 106 105 104 105 105 105 106 105 104 104 105 103 96 80 62 47 40 37 33 28 24 22 22 22 22 22 21 19 18 18 19 20 21 22 24 25 26 27 28 28 28 30 34 35 36 38 38 38 39 39 40 42 44 42 38 37 38 38 37 34 35 37 37 32 26 22 21 20 19 17 17 17 17 16 16 16 15 16 15 15 15 15 15 16 15
107 108 107 106 106 108 108 107 104 103 104 105 103 96 82 63 48 41 37 34 30 25 23 22 22 22 22 21 21 19 18 19 20 20 21 22 24 26 26 27 30 31 30 31 35 38 37 38 39 39 39 40 40 42 44 48 49 44 43 44 43 42 40 36 33 31 29 24 19 17 16 15 14 14 14 14 14 14 14 15 14 15 14 15 15 15 15 15
103 102 101 103 103 102 101 100 102 104 102 93 77 61 48 40 38 36 31 27 24 22 22 22 22 22 22 20 19 19 19 20 20 21 24 24 24 27 30 31 32 33 33 34 38 40 40 40 41 41 42 43 43 43 44 47 49 47 46 48 47 42 40 37 31 26 23 21 18 14 13 13 12 12 12 12 12 12 13 13 13 14 14 14 14 14 14 13
89 91 93 96 97 100 103 103 99 89 73 57 45 40 38 36 34 29 25 23 22 22 22 22 22 21 20 19 18 19 19 20 21 22 23 24 26 30 35 36 37 37 35 35 38 41 41 41 44 46 47 48 46 44 45 47 49 49 46 45 43 38 34 32 27 23 20 18 15 13 11 11 11 10 11 10 11 12 12 12 13 14 14 14 14 13 12 11
85 91 96 102 106 105 96 81 64 51 42 38 37 36 34 30 27 24 23 22 22 23 23 22 21 20 19 19 18 18 19 20 21 23 25 30 34 37 40 43 43 41 38 37 40 44 44 45 47 49 51 53 50 47 46 47 49 47 42 38 35 32 29 26 24 20 17 16 13 11 10 10 10 9 10 10 10 10 11 12 13 14 14 13 13 12 11 10
92 97 98 96 88 73 56 45 39 36 36 35 33 31 28 25 23 22 22 23 24 24 22 22 21 20 19 19 18 17 18 21 26 30 34 38 42 44 46 49 49 46 41 39 43 49 49 48 51 54 57 61 57 50 45 43 41 38 35 32 28 26 24 22 20 17 16 15 12 10 9 9 9 9 9 10 10 10 11 12 13 12 12 12 11 10 9 9
81 74 66 55 46 39 36 36 35 33 33 31 29 26 24 23 23 23 24 24 23 22 22 21 19 17 17 17 17 18 21 26 32 38 41 45 48 51 53 54 55 53 48 41 41 50 52 48 52 56 57 62 60 51 43 37 34 30 27 26 24 22 21 18 16 15 14 14 11 9 9 9 8 9 9 9 10 10 11 12 11 11 11 10 10 9 8 8
45 40 37 36 35 34 33 31 31 32 31 28 25 23 23 24 24 24 24 24 23 22 21 19 18 17 17 18 20 25 32 37 42 46 50 53 55 57 59 64 68 68 66 55 44 48 53 48 51 57 57 59 61 54 45 36 29 25 21 21 20 19 18 17 15 14 13 13 11 9 9 9 9 9 9 9 10 11 10 10 10 9 9 8 8 7 6 6
34 35 35 33 30 28 29 31 32 30 25 23 23 24 24 24 24 24 24 24 23 22 20 19 20 20 23 27 30 35 44 51 55 58 60 64 67 69 71 76 85 88 89 82 64 55 60 58 56 63 62 59 61 61 54 41 29 23 19 16 15 15 15 15 14 12 12 12 11 9 9 10 10 9 9 9 10 10 9 9 8 8 7 7 6 5 5 5
34 31 27 25 27 30 32 31 26 23 22 24 25 24 24 25 25 25 25 24 23 22 21 22 24 26 30 35 39 46 54 59 63 65 66 67 68 70 70 71 76 81 84 89 80 64 65 71 67 70 71 63 62 63 58 47 33 22 17 14 12 12 11 11 11 10 10 10 9 9 9 10 10 10 9 9 9 9 8 7 7 6 6 5 5 5 5 5
25 23 25 29 32 31 26 22 22 23 25 25 24 25 26 26 25 25 25 25 24 24 25 28 32 35 39 44 51 58 63 64 65 66 67 67 66 66 67 64 64 68 70 82 87 70 62 70 70 68 72 67 61 58 53 46 35 23 15 12 11 9 9 9 9 8 8 9 8 8 9 10 10 9 9 9 9 8 7 6 6 5 5 4 4 4 4 4
25 30 33 32 27 23 21 22 24 24 24 25 26 27 26 25 26 27 27 26 26 28 31 35 38 42 48 54 60 65 67 69 68 67 67 70 74 73 70 69 68 69 70 79 93 85 65 63 66 62 63 64 59 54 50 44 37 27 17 12 10 10 9 9 8 8 7 8 8 8 9 10 9 8 8 8 8 7 6 5 5 5 4 4 4 4 4 3
33 33 28 24 21 21 23 24 23 24 26 27 27 28 27 27 28 29 29 29 31 34 38 42 45 48 53 59 65 68 70 72 71 70 70 72 77 77 74 75 75 74 74 76 88 96 81 68 69 67 61 61 60 55 52 48 43 33 21 13 11 10 10 9 9 8 7 7 8 8 9 9 7 7 8 7 7 6 5 4 4 4 4 4 4 4 4 4
28 24 21 21 23 25 24 24 25 27 28 28 29 29 28 28 30 31 32 34 38 43 49 53 53 54 58 65 71 71 71 73 74 73 73 72 74 77 77 78 78 78 79 75 78 92 95 81 74 74 68 63 62 60 56 51 46 38 26 15 11 10 10 9 8 8 7 7 7 8 8 8 6 7 8 7 7 5 4 4 4 4 4 4 4 4 3 3
20 19 21 24 25 25 24 25 28 29 29 31 31 29 28 31 33 33 35 40 46 54 59 60 60 59 64 72 75 72 71 73 74 73 72 72 72 74 77 78 79 79 80 79 75 82 95 91 79 75 73 66 61 60 58 52 46 41 31 19 11 9 9 9 8 7 6 6 7 8 9 8 6 7 7 6 6 4 4 4 3 4 4 4 4 3 3 3
20 21 24 25 25 25 26 28 30 30 31 33 31 29 31 35 36 37 40 46 54 60 60 60 61 62 68 74 72 69 69 70 71 70 70 71 71 73 77 77 76 78 80 80 77 76 84 91 83 74 70 65 59 57 56 52 46 41 33 22 13 9 8 9 8 7 6 6 6 9 10 8 6 5 5 5 5 4 3 3 3 4 3 3 3 3 3 3
23 24 25 25 25 28 29 29 32 34 34 33 31 31 36 39 39 40 43 49 56 59 58 58 61 64 70 71 65 63 67 67 67 68 68 71 72 73 77 76 73 76 79 78 77 74 76 83 86 81 72 64 57 52 51 49 43 37 31 23 15 10 8 8 9 8 7 6 6 8 9 7 5 5 5 4 4 4 3 3 3 3 3 3 3 3 3 3
25 26 26 25 29 31 29 32 38 38 34 32 33 36 39 40 41 42 45 50 55 56 56 59 61 64 68 66 60 60 64 64 65 67 69 70 71 73 76 75 73 74 77 78 76 74 73 76 81 82 75 68 61 52 47 45 40 33 28 23 16 11 9 8 9 9 8 7 6 7 9 7 5 5 4 4 4 3 3 3 3 3 4 4 3 3 3 3
26 27 26 27 31 30 31 39 42 36 33 35 37 39 41 42 44 46 49 52 54 55 58 61 62 62 63 61 58 58 61 63 63 65 68 69 70 72 74 74 73 73 76 78 77 74 72 73 76 78 74 67 62 54 46 43 41 35 29 24 18 13 10 8 8 9 9 8 7 7 9 7 5 5 4 4 4 3 3 3 4 4 4 4 4 3 3 3
28 28 27 29 32 32 37 44 38 34 38 40 40 41 44 45 48 50 52 54 54 55 58 63 63 61 61 60 58 58 60 61 62 63 66 68 68 70 73 74 73 73 74 76 76 73 69 68 74 80 82 79 73 67 59 51 45 38 30 25 19 14 11 9 8 9 9 9 7 8 8 7 5 5 4 4 4 4 4 4 4 4 4 4 4 3 3 3
29 27 28 31 33 35 42 42 36 38 43 41 42 45 47 50 52 53 54 53 53 55 60 64 63 60 61 60 57 57 59 59 60 60 63 66 68 69 71 74 74 73 73 75 76 74 68 64 64 70 78 83 81 77 71 61 50 40 31 25 20 15 12 9 9 8 9 10 8 6 7 7 5 4 4 4 4 4 4 4 4 4 4 5 4 4 3 3
28 28 30 33 34 39 44 41 38 42 43 42 44 48 51 54 55 54 53 52 52 55 59 63 61 59 59 59 57 56 56 55 55 56 60 64 67 69 70 74 75 74 72 74 76 75 71 66 61 60 61 64 65 64 61 58 51 42 32 25 20 16 12 10 9 8 9 10 9 6 6 6 5 4 4 4 4 4 4 5 4 4 5 5 4 4 3 3
29 29 31 34 40 44 43 39 40 44 44 45 47 49 53 55 54 52 51 52 52 52 56 59 58 57 57 57 57 53 51 50 50 53 58 63 66 68 70 73 75 74 72 72 74 74 74 72 68 67 66 64 64 63 58 54 50 43 35 26 20 16 13 10 8 8 7 9 10 8 5 5 5 4 4 3 3 3 4 4 4 4 5 4 4 3 3 3
31 31 34 40 44 43 39 39 44 46 46 48 50 50 51 52 51 50 49 51 51 49 52 55 55 55 56 55 53 48 45 44 46 52 58 62 66 68 70 71 73 74 71 70 70 71 73 76 75 77 80 79 77 76 71 63 54 46 37 28 20 16 13 10 8 8 7 7 9 8 6 5 4 3 3 3 3 3 3 4 4 4 4 3 3 3 3 3
32 32 37 43 42 39 40 44 47 47 48 52 53 51 50 50 50 48 46 48 49 48 49 52 53 54 54 52 48 44 43 42 45 53 58 62 66 67 68 69 70 71 69 67 66 65 67 74 78 81 85 87 85 82 79 72 62 51 40 31 23 16 13 11 8 8 7 6 7 7 6 4 4 4 3 3 3 3 3 3 4 3 3 3 3 3 3 2
34 35 39 41 39 41 45 48 48 49 52 55 56 52 48 48 49 48 45 46 47 48 48 48 50 50 49 47 44 42 43 44 46 53 58 61 65 65 65 67 67 67 66 63 61 60 61 67 74 77 82 87 88 84 79 73 64 54 43 33 24 17 13 11 9 7 8 7 6 6 6 5 4 4 3 3 3 3 3 3 3 3 3 3 3 3 3 2
36 38 39 40 42 46 48 48 50 52 54 59 60 54 47 46 48 47 45 44 45 46 46 46 47 46 44 43 42 42 43 45 47 52 57 60 62 62 61 63 63 63 62 60 57 55 55 59 66 71 74 80 86 85 79 71 63 54 45 36 27 18 13 11 9 7 7 7 7 7 6 5 4 4 4 3 3 2 3 3 3 3 3 3 3 3 3 3
38 39 41 43 45 47 49 50 52 54 57 61 61 55 48 46 48 48 44 41 40 42 44 46 46 44 44 43 43 42 43 45 48 51 55 58 58 57 58 58 58 58 58 57 55 52 51 53 60 64 65 69 77 80 78 73 64 53 45 37 28 19 13 10 8 6 6 7 7 7 6 5 5 5 4 3 3 2 3 3 3 3 3 3 3 3 3 3
40 41 44 46 47 47 50 52 53 55 59 62 62 56 49 48 51 49 43 38 38 42 45 47 46 46 46 45 43 42 42 45 48 50 53 55 53 53 55 55 54 54 54 54 53 51 49 49 53 59 60 61 66 71 72 68 61 51 42 35 28 20 14 10 9 8 6 6 6 6 5 5 4 4 4 4 4 2 2 3 3 3 3 3 3 3 3 3
43 44 46 48 47 47 51 54 55 58 61 63 63 56 50 51 54 50 43 37 39 45 48 48 49 49 49 47 44 42 42 44 47 50 51 50 48 50 53 53 52 51 51 52 52 50 48 47 49 54 56 55 57 64 66 60 52 46 39 33 27 21 15 11 9 9 7 6 6 6 5 4 3 4 4 4 4 3 3 3 2 3 3 3 3 3 3 3
Wind_Speed
49 49 49 47 45 43 41 39 38 36 34 33 32 32 32 32 33 33 34 35 36 37 38 39 40 41 43 44 45 46 47 48 48 49 51 52 53 55 56 58 61 63 65 67 68 69 71 72 73 75 76 78 78 79 79 78 78 77 76 74 71 69 68 67 66 64 64 65 65 66 67 68 67 67 68 69 70 71 72 72 72 73 73 73 74 75 76 78
50 49 48 47 46 44 42 40 38 37 35 34 33 32 31 31 32 32 33 35 36 37 38 40 41 42 43 44 46 47 48 48 50 51 53 54 56 57 59 62 64 66 67 68 70 70 71 73 75 76 77 77 77 77 77 77 75 72 70 67 66 66 66 67 67 67 67 68 69 70 71 72 71 71 72 72 73 75 76 76 77 77 78 78 78 79 80 81
51 50 49 48 46 44 42 40 39 37 36 35 34 33 32 31 32 32 33 34 35 37 38 40 41 43 44 45 46 48 49 50 52 53 55 57 59 61 63 65 67 68 70 70 71 72 73 75 76 76 76 76 76 75 73 71 68 66 65 65 66 67 69 70 70 71 72 72 72 73 74 75 75 75 75 75 76 77 78 79 80 81 82 83 83 84 84 85
51 50 49 47 45 43 42 40 39 37 36 35 34 33 32 31 31 31 32 34 36 37 39 40 42 43 44 46 48 49 51 52 54 56 58 60 62 64 66 68 69 70 71 72 73 74 75 75 75 76 76 74 72 70 67 66 66 66 67 68 69 70 71 72 73 73 74 74 75 75 76 77 78 78 78 78 78 79 80 81 82 83 85 86 87 88 89 89
51 49 48 46 44 42 41 39 38 37 36 35 34 32 31 31 31 31 33 35 36 38 39 41 42 44 46 47 49 51 52 54 57 59 61 63 64 66 67 68 70 71 73 74 74 74 74 74 74 73 70 68 66 66 66 67 68 69 70 70 71 72 72 73 73 74 74 74 75 75 76 77 78 79 80 80 79 79 80 82 83 84 86 87 89 90 91 92
51 48 46 44 42 41 40 39 37 36 35 34 32 31 31 31 32 33 35 36 37 39 40 42 43 45 47 49 50 52 54 56 58 60 62 63 65 66 68 69 71 72 73 73 73 73 73 71 69 66 65 65 66 67 68 69 70 70 71 71 71 71 71 72 72 72 72 73 73 74 75 76 78 79 80 80 80 80 80 82 83 85 86 87 89 90 91 93
49 47 45 43 42 41 40 38 37 36 34 33 32 31 31 32 33 35 36 37 38 40 41 43 44 46 48 50 51 53 55 57 59 60 62 63 65 67 69 70 71 71 71 72 72 70 67 65 64 64 65 67 68 69 69 70 70 70 70 70 70 70 69 70 70 70 70 71 71 72 73 75 77 79 80 81 80 80 81 82 84 85 87 88 89 90 91 93
48 46 44 42 41 40 39 38 36 35 34 32 31 31 32 33 34 35 36 38 39 41 42 44 46 48 49 51 53 54 56 58 59 61 62 64 66 68 69 69 70 70 70 69 66 64 63 64 66 67 68 68 68 69 69 68 68 68 67 67 67 67 67 67 68 68 68 69 70 71 72 74 77 79 80 81 80 80 81 82 84 86 87 89 90 91 92 93
47 46 44 42 41 40 38 37 35 34 33 32 31 32 33 34 34 35 37 38 40 41 43 45 47 49 50 52 54 55 57 59 60 62 63 65 66 67 68 69 69 68 66 64 63 64 65 66 67 67 67 67 66 65 65 65 64 64 64 64 65 66 66 66 67 68 68 69 69 70 71 73 78 80 80 81 81 81 82 83 85 86 88 89 91 92 93 93
45 44 43 42 40 38 37 36 35 33 32 31 32 32 33 33 34 36 37 39 40 42 44 45 47 49 51 52 54 56 58 59 61 63 64 65 65 66 67 67 65 63 62 63 64 65 66 66 65 64 63 62 61 61 61 61 62 62 62 63 64 65 65 65 67 68 68 69 69 70 70 73 78 81 81 81 82 82 83 84 86 87 88 90 92 93 93 93
43 43 42 40 38 36 35 35 34 33 32 32 32 32 33 34 35 37 38 40 41 43 44 46 47 49 51 53 55 56 58 60 62 63 63 64 65 65 64 62 61 61 63 64 64 64 62 61 60 60 59 59 59 59 60 61 61 62 62 63 64 65 65 65 67 69 69 69 69 70 70 73 79 81 81 82 83 84 85 86 87 88 89 91 92 93 93 94
42 41 39 38 36 35 35 34 33 33 32 32 32 33 34 35 36 37 38 40 41 43 45 46 48 50 51 53 55 57 59 60 61 62 63 64 63 61 60 60 61 62 62 61 60 59 58 57 57 58 58 58 58 58 59 60 60 60 61 62 63 65 65 65 67 68 69 69 70 71 69 72 80 82 81 82 83 85 86 88 89 89 90 92 93 93 94 95
40 39 37 36 35 34 33 33 33 33 32 32 33 34 35 36 36 37 38 40 41 43 45 47 49 50 52 54 56 58 59 60 61 62 62 60 58 58 59 60 60 59 57 56 55 54 54 55 55 56 56 56 56 56 57 58 59 59 59 60 61 64 65 65 66 67 68 68 70 72 68 69 79 82 81 82 84 86 88 89 91 91 92 93 94 95 95 97
38 36 35 34 33 33 32 32 32 32 32 33 34 34 34 35 36 37 39 40 42 44 45 47 49 51 53 54 56 57 58 60 60 59 57 56 57 58 58 57 55 53 52 52 52 52 52 52 52 52 53 53 53 54 54 55 57 58 58 59 60 62 65 66 66 66 67 68 70 72 69 68 76 81 81 83 85 87 89 91 93 93 94 95 95 96 97 98
35 34 33 32 31 31 31 31 31 31 32 32 33 33 33 35 36 37 39 40 42 44 45 47 49 51 53 54 55 57 58 57 56 55 54 55 54 53 52 51 50 49 49 48 48 49 49 49 49 49 50 50 51 51 52 53 55 56 57 59 60 60 62 66 67 66 64 66 70 72 70 68 74 79 81 83 86 88 90 92 94 94 95 95 96 96 97 98
32 32 31 30 29 29 29 29 30 30 31 31 31 32 33 34 35 37 39 40 42 44 46 48 49 51 52 54 55 55 54 52 52 53 52 51 49 47 47 47 47 46 46 45 45 45 46 47 48 48 49 50 51 51 50 50 52 54 54 55 57 58 59 63 68 68 64 64 68 73 72 68 72 76 79 82 84 87 89 91 93 93 94 94 95 96 97 98
31 30 29 28 28 28 28 28 29 29 29 29 30 31 32 34 35 37 39 40 42 44 46 47 49 51 52 52 51 50 49 49 49 48 46 45 44 43 43 43 44 44 43 43 43 43 44 45 46 47 48 48 49 50 50 49 50 52 53 55 56 58 59 60 65 68 66 65 68 73 74 72 73 77 79 80 83 85 88 90 91 92 93 94 95 96 97 97
29 28 28 27 27 27 27 27 27 27 28 29 29 31 32 34 35 37 39 41 42 44 45 47 49 49 49 48 47 47 47 46 44 42 41 41 40 40 40 40 40 40 41 41 42 42 43 44 44 45 46 47 48 50 51 51 51 52 54 56 58 59 62 62 64 65 64 66 70 73 74 75 77 80 81 81 83 85 87 89 90 91 92 93 95 96 96 97
28 27 27 26 26 26 25 25 25 26 27 27 29 31 32 34 35 37 39 41 42 44 45 47 46 45 44 44 44 44 42 40 39 38 37 36 36 36 37 37 38 39 40 42 43 43 43 44 45 46 47 49 50 51 52 52 53 54 55 57 58 59 62 64 67 67 64 64 69 72 73 75 78 80 82 83 84 86 88 89 90 91 92 93 95 95 95 96
26 26 25 25 24 24 23 23 24 25 26 27 29 30 32 34 35 37 38 40 42 43 43 42 41 41 41 40 38 36 36 36 35 34 33 33 34 34 36 37 39 40 41 42 44 45 45 46 47 48 49 51 52 53 54 54 54 55 57 59 59 59 61 65 67 68 68 66 68 71 73 76 78 79 81 83 85 87 88 89 90 91 92 93 94 94 94 95
25 24 23 22 21 21 21 22 23 24 25 27 29 31 32 33 34 36 38 40 40 39 38 38 39 39 37 35 32 30 30 30 30 30 31 32 34 35 37 40 41 42 43 43 45 46 48 49 49 50 52 53 55 56 57 57 56 56 58 61 62 62 62 67 69 69 70 70 68 71 74 77 79 80 81 83 84 86 87 88 89 91 92 92 93 93 93 93
23 21 20 20 19 19 20 21 22 24 26 27 29 30 31 33 35 36 37 36 35 35 35 35 34 32 31 30 29 28 27 26 27 29 31 34 36 38 41 43 43 44 45 45 46 48 50 52 53 54 54 55 56 58 59 60 60 58 60 62 64 65 64 66 71 72 73 73 72 72 74 77 79 81 82 83 84 85 86 87 89 90 91 91 91 91 92 92
20 19 18 18 18 18 19 21 23 24 25 26 28 30 32 33 34 34 32 32 32 32 31 30 28 26 26 25 25 26 27 28 30 33 35 38 40 43 44 46 47 48 49 49 51 53 54 55 56 57 57 58 59 60 62 64 65 63 63 65 66 68 68 68 70 72 75 76 74 71 72 75 77 80 83 83 84 85 85 87 88 89 89 89 89 90 90 91
19 18 17 17 18 18 20 21 22 23 24 26 28 30 31 31 30 29 29 29 29 27 26 24 23 22 22 23 24 26 28 31 33 36 39 41 44 47 49 51 52 53 54 55 56 58 58 59 60 61 62 62 62 63 64 66 68 68 68 69 70 71 72 73 72 71 73 75 75 71 70 73 76 79 82 82 83 84 84 85 85 85 85 86 87 88 88 89
17 16 16 16 17 17 18 19 21 23 25 27 27 27 27 26 26 27 26 25 23 21 20 19 19 20 20 22 24 27 31 33 36 39 43 45 48 51 54 55 56 56 57 58 60 61 62 64 64 65 65 65 65 65 66 67 69 70 70 71 71 71 72 74 74 72 72 74 75 72 69 70 73 76 78 78 79 81 82 82 81 81 81 82 84 85 86 86
15 14 14 14 15 16 17 19 22 24 24 24 23 23 23 24 24 22 21 19 17 16 17 17 18 19 20 23 26 30 34 37 40 43 46 49 52 54 56 58 59 60 61 62 64 65 66 67 67 68 68 67 67 68 69 69 70 70 70 70 71 71 72 73 75 75 74 75 76 74 73 72 73 74 74 73 75 77 78 78 78 79 80 81 82 83 84 85
12 11 12 12 14 16 18 20 21 21 20 20 20 21 21 20 19 16 15 14 14 15 17 18 20 22 24 27 29 33 37 41 45 48 51 54 55 57 59 61 62 63 65 67 67 67 68 69 69 70 70 70 70 69 70 70 70 70 69 70 70 71 72 73 75 76 75 77 77 77 77 76 75 76 74 72 73 74 73 74 75 77 79 80 81 82 83 83
9 10 11 13 15 17 18 17 17 17 17 18 18 18 16 14 12 11 11 12 13 15 18 20 23 26 29 32 34 38 42 46 51 53 55 57 58 60 62 63 64 66 68 69 69 68 69 70 71 71 72 73 72 72 71 70 70 70 70 71 71 72 72 74 75 76 76 77 77 77 79 78 74 76 76 74 73 71 70 72 73 75 77 78 79 80 81 82
9 10 12 13 14 14 14 14 15 15 15 15 14 12 10 8 8 9 11 12 14 16 19 21 24 27 31 35 40 44 48 52 54 56 57 59 60 62 63 65 66 68 69 71 71 71 71 72 73 74 74 74 75 75 74 73 73 72 72 72 72 72 73 74 73 74 74 75 75 73 75 76 72 70 73 72 71 69 69 70 72 74 75 76 77 77 78 79
9 10 11 11 12 12 12 13 13 13 12 9 7 6 5 6 8 10 12 15 17 20 23 26 29 33 37 42 46 50 53 55 56 58 59 60 62 63 64 66 68 69 70 72 73 72 73 75 76 76 76 76 77 78 79 78 77 76 75 73 72 72 72 73 73 72 72 73 74 72 73 75 73 68 68 69 68 68 69 69 70 71 72 72 73 74 75 76
9 9 10 10 11 11 11 11 10 7 5 3 2 3 4 6 9 12 16 19 22 25 28 32 37 41 45 48 50 52 54 55 55 56 57 58 59 60 62 64 66 68 71 73 74 75 75 77 79 79 79 79 79 81 82 82 81 80 79 77 74 71 69 70 71 70 70 71 73 73 73 75 75 71 69 67 66 66 68 69 69 69 69 69 70 72 73 74
8 9 9 10 10 9 8 7 4 2 1 1 2 4 7 10 13 17 21 24 27 30 33 38 42 45 48 50 51 53 54 53 53 53 54 54 55 57 59 61 64 67 71 75 77 78 78 80 82 82 83 83 83 83 83 84 84 83 82 82 80 74 69 68 69 67 67 70 72 72 72 73 73 71 69 67 66 67 68 69 69 68 67 67 69 70 70 70
8 8 8 8 7 6 4 1 2 3 3 4 5 8 11 14 18 22 25 28 32 35 39 42 45 47 49 50 51 52 52 52 52 52 54 55 58 60 62 64 67 70 73 77 80 81 81 83 85 86 88 89 89 88 87 86 86 86 85 85 86 82 76 74 73 69 66 68 71 72 73 73 71 70 70 69 69 69 68 69 69 67 66 65 66 66 66 66
7 7 6 5 2 1 3 4 5 5 6 7 9 13 15 18 22 26 29 32 36 39 42 44 46 48 49 50 50 50 50 50 51 53 55 57 61 63 65 67 70 73 76 79 83 85 85 86 88 89 91 92 93 94 94 92 90 90 89 88 88 88 85 82 81 77 72 70 70 71 73 73 70 68 69 68 69 69 68 68 68 67 65 65 65 65 64 64
6 4 3 2 4 6 6 7 6 8 9 10 14 17 19 23 27 30 33 36 39 41 44 46 47 49 50 49 49 49 49 50 52 54 57 59 62 64 66 69 72 75 78 80 84 88 90 91 92 93 94 95 97 98 97 97 95 92 91 90 89 89 87 84 82 81 78 73 71 71 73 74 71 68 68 68 69 69 69 68 67 67 66 66 66 66 65 64
4 4 6 8 9 9 8 8 9 10 11 15 18 19 22 27 30 33 36 39 41 43 45 47 48 50 50 49 49 49 50 52 54 57 59 61 63 66 68 70 73 76 80 82 84 88 92 94 95 96 98 99 100 102 102 101 99 97 94 92 90 89 89 86 81 79 76 72 70 71 74 75 72 69 68 68 69 68 67 67 67 67 66 66 65 64 63 61
6 8 10 11 11 10 10 11 12 12 15 19 20 21 26 30 32 35 38 40 42 44 46 47 48 49 49 48 49 50 52 54 56 59 61 63 65 67 69 72 75 78 81 84 86 88 93 96 97 98 99 100 101 103 104 104 102 100 98 96 92 89 88 88 85 80 76 73 69 70 76 77 74 71 68 67 68 66 65 64 64 64 64 63 63 62 61 60
10 11 12 13 12 12 13 13 13 15 19 21 20 24 29 32 34 37 38 40 43 45 46 46 47 48 48 47 49 52 54 55 57 59 62 64 67 69 71 73 76 79 82 85 87 89 92 96 99 100 100 101 102 103 103 104 103 102 100 98 96 92 89 89 89 87 83 80 76 73 77 80 76 74 72 70 69 66 63 61 59 59 61 61 61 59 58 57
13 13 13 13 13 14 14 15 16 19 20 20 22 28 31 33 35 36 38 40 43 45 46 46 47 48 47 48 51 53 54 56 58 60 63 66 68 71 73 75 78 81 84 86 89 91 93 97 101 102 102 102 102 103 104 104 103 102 101 99 97 95 92 90 91 92 89 88 84 80 80 83 81 78 77 74 72 69 64 61 59 59 60 61 60 58 56 54
14 13 13 13 14 14 14 17 19 19 18 21 26 30 32 34 35 36 38 40 43 45 47 47 47 47 47 50 52 54 55 57 59 62 64 67 69 71 74 77 79 82 85 88 90 92 94 97 100 102 103 104 105 106 107 107 107 106 104 103 101 99 96 92 89 89 89 89 89 87 86 86 84 82 80 77 74 71 67 63 62 62 62 62 62 60 57 54
15 14 13 14 15 13 16 20 18 16 19 25 29 30 32 34 35 36 38 40 43 45 46 47 47 47 48 51 53 54 56 58 60 63 65 68 70 73 76 78 81 83 85 88 91 92 94 96 99 102 103 105 106 107 108 109 110 109 108 106 104 102 100 96 90 87 86 86 86 88 89 88 86 84 83 80 77 73 69 64 63 63 64 64 63 62 59 56
16 15 14 16 16 16 20 20 15 17 23 27 29 31 32 34 35 37 39 41 43 45 46 47 48 49 50 52 53 56 57 59 62 64 67 69 72 75 77 80 82 83 85 88 91 93 94 95 98 102 105 107 108 108 108 109 109 109 108 107 105 103 102 100 96 92 88 85 82 82 84 86 85 84 84 83 80 76 72 67 64 64 65 64 64 63 61 59
17 15 16 17 16 17 20 18 16 21 26 27 29 31 33 35 36 38 40 41 43 45 46 47 49 50 52 53 55 57 59 62 64 66 67 70 73 76 79 81 83 85 87 90 93 95 96 97 97 99 102 105 107 108 110 111 111 110 109 108 105 103 101 100 98 96 92 88 83 78 78 81 82 81 81 82 81 78 74 71 67 64 65 65 66 65 62 59
16 15 17 17 16 17 19 18 19 23 25 27 30 31 33 36 37 39 41 42 43 45 47 48 50 52 53 55 57 59 62 65 67 68 69 71 75 77 80 82 84 86 88 91 94 97 100 102 102 102 103 104 106 108 110 112 114 113 112 111 108 104 102 98 95 93 92 91 88 81 77 77 78 77 77 79 80 79 76 73 69 66 64 64 65 64 61 58
15 16 17 17 17 18 18 18 21 24 25 27 29 31 34 35 37 39 41 42 44 46 47 48 50 53 55 57 59 62 65 68 70 70 71 73 76 78 81 83 85 87 89 92 95 99 102 105 107 110 112 114 116 118 117 116 117 117 115 113 110 106 103 99 96 92 90 90 91 88 82 78 76 75 75 75 75 74 74 72 69 67 64 63 63 62 60 57
16 17 17 17 17 17 18 19 22 24 25 27 29 31 33 35 38 40 42 43 45 46 48 49 51 54 57 59 61 64 67 70 72 72 72 74 76 79 81 83 85 88 90 92 95 98 102 107 110 114 118 121 122 124 124 123 121 119 116 114 112 108 105 102 98 94 90 87 87 90 88 84 82 79 77 74 71 69 68 67 66 64 63 62 62 61 60 57
17 17 18 17 16 17 19 21 23 24 25 27 29 31 33 35 38 40 42 44 45 47 49 50 52 55 57 60 63 66 69 72 73 73 73 74 77 79 82 84 86 88 91 92 95 97 101 106 110 114 118 121 123 124 125 125 124 122 119 117 115 111 106 103 99 96 92 87 85 87 89 87 84 83 81 79 74 69 66 65 64 62 61 61 61 60 60 58
17 17 17 16 17 19 21 22 23 23 25 27 29 31 33 35 38 41 43 44 46 47 49 52 54 56 58 61 64 67 70 73 74 73 73 74 77 80 82 84 87 89 91 93 94 96 99 104 108 111 115 119 122 124 124 125 125 124 121 118 116 113 108 104 101 98 95 94 92 91 91 90 86 84 82 80 76 71 68 67 66 64 62 62 61 60 60 59
16 17 16 16 19 20 21 22 23 23 25 27 28 30 32 35 38 41 43 45 46 48 50 52 54 57 60 62 65 68 70 72 73 73 74 75 78 81 83 86 88 90 92 94 95 96 98 102 106 110 113 116 120 122 123 124 124 123 122 120 117 114 110 106 104 102 100 100 99 97 95 93 90 86 83 81 77 73 71 70 69 67 64 62 60 59 59 58
16 16 16 17 19 20 21 22 22 23 24 26 28 29 32 35 38 40 43 45 47 49 50 52 55 58 61 64 67 70 72 73 73 74 75 76 79 83 85 88 90 92 94 96 97 97 98 101 105 108 110 113 117 120 122 124 124 122 121 120 118 116 112 109 107 106 104 101 100 98 96 93 90 88 86 85 81 77 73 71 70 69 67 63 59 58 57 56
15 15 15 17 19 20 21 21 22 22 24 26 27 29 32 35 37 40 42 45 48 50 52 53 56 59 62 65 68 71 73 73 74 75 76 79 82 85 88 90 92 93 95 97 99 99 99 101 104 107 109 112 115 119 121 122 122 121 120 120 119 118 117 115 113 111 107 103 100 97 95 93 90 88 87 87 85 81 76 73 70 69 68 64 60 57 56 55
13 13 15 16 18 18 19 20 21 22 23 25 27 28 31 34 37 39 41 44 47 50 52 54 57 59 62 66 69 72 74 74 75 76 78 81 85 88 90 92 93 94 96 98 100 102 102 103 105 108 111 112 114 119 122 121 120 121 122 123 122 122 121 119 116 113 110 107 103 100 97 95 93 90 88 87 86 83 80 76 72 69 67 64 61 58 56 55
Wind_Direction
198 201 203 205 208 210 210 211 214 217 220 224 229 233 238 243 248 252 255 257 257 258 259 261 263 264 266 268 270 272 274 276 278 280 282 283 284 284 285 286 288 290 290 291 290 290 290 290 290 290 290 291 291 291 291 291 292 292 292 291 290 290 289 288 288 287 286 285 284 283 282 281 281 280 279 277 276 275 274 273 272 271 270 269 268 267 266 265
199 201 203 205 209 212 213 215 218 221 224 227 232 237 241 246 251 255 257 258 259 260 261 263 264 266 268 270 271 273 276 278 279 281 282 283 283 284 285 287 289 290 291 291 291 291 291 291 291 291 292 292 292 292 292 292 292 292 292 292 291 291 290 289 289 288 287 286 285 284 283 283 282 281 280 278 277 277 276 275 274 273 272 270 269 267 266 266
201 202 204 206 208 211 215 218 221 224 227 231 235 239 243 248 253 256 258 259 260 262 263 264 266 268 269 271 273 275 277 279 280 281 282 283 284 286 287 289 290 291 291 292 292 292 292 293 293 293 294 294 294 294 294 294 294 293 293 293 292 292 291 291 290 289 288 287 286 285 285 284 283 281 280 278 277 277 276 276 275 274 273 272 271 269 268 267
202 203 205 207 209 212 215 220 223 226 230 234 237 240 244 250 255 258 260 261 263 264 265 266 268 270 271 273 275 276 278 280 281 283 284 286 287 288 289 290 291 292 292 293 293 294 294 295 296 296 296 296 296 296 296 296 295 295 294 293 292 291 291 290 289 289 288 287 286 286 285 284 283 282 280 278 277 276 275 275 274 274 273 272 271 270 269 268
203 204 206 208 210 213 217 221 225 229 233 236 238 242 246 252 256 259 261 263 264 266 267 269 271 272 273 274 276 278 280 282 284 285 287 288 289 290 290 291 292 292 293 294 295 296 297 297 298 298 298 298 298 298 297 297 295 295 293 292 291 290 290 289 289 288 288 287 287 286 285 284 283 282 280 279 277 276 275 274 273 272 271 270 270 270 269 269
203 204 207 209 211 214 218 222 226 230 233 236 239 243 248 253 256 259 262 264 267 268 270 271 272 273 275 276 278 281 283 285 287 288 289 289 290 291 291 292 293 294 295 297 298 299 299 299 299 299 299 299 298 297 296 295 294 293 292 292 291 291 290 290 289 289 288 287 286 285 284 283 282 281 280 279 278 277 276 275 274 273 271 270 269 269 268 268
202 203 206 209 212 215 219 222 226 230 232 235 240 244 249 253 257 260 264 267 269 270 271 273 274 275 277 279 281 284 286 288 288 289 289 290 291 292 293 294 295 297 298 299 300 300 300 300 300 299 299 298 297 296 295 295 294 294 294 294 293 292 291 290 289 288 287 286 285 284 283 282 281 280 279 279 278 277 276 275 274 273 272 271 270 269 269 268
200 202 206 209 213 216 219 223 226 229 232 236 241 246 251 255 258 262 266 268 270 271 272 274 276 278 280 282 284 287 288 289 289 290 291 292 293 294 296 297 299 299 300 300 301 301 301 300 300 299 299 298 298 298 297 297 297 297 296 295 294 293 292 291 289 288 287 286 285 284 283 282 280 279 279 278 278 277 276 275 274 273 272 272 271 270 269 268
199 201 206 209 213 217 220 223 225 228 232 237 243 248 253 257 261 264 267 269 270 272 275 277 279 281 283 284 286 288 289 290 291 292 293 295 296 298 299 300 300 301 301 302 302 302 302 302 301 301 301 301 300 300 300 299 298 297 296 295 293 292 291 290 289 287 287 285 285 284 283 282 280 279 278 278 277 276 275 274 273 272 272 271 270 270 269 269
199 201 205 209 213 216 218 221 225 229 234 239 245 249 254 258 262 265 268 270 273 276 278 280 282 283 285 286 288 289 291 292 294 295 296 298 299 300 301 301 302 302 303 303 304 304 303 303 303 303 303 302 301 300 299 297 296 295 294 293 292 291 290 289 288 287 286 285 285 284 283 282 281 280 279 278 278 277 276 274 273 272 272 271 270 270 269 268
199 200 204 209 212 215 218 221 225 230 235 241 246 251 256 260 264 267 271 274 277 279 282 283 284 286 287 288 290 292 293 295 296 298 299 300 301 302 303 303 304 305 305 305 305 305 305 305 304 303 302 301 300 299 298 297 296 296 295 294 293 291 291 289 288 287 287 286 285 284 283 282 280 280 280 279 279 278 277 276 275 274 273 272 271 271 270 270
200 201 204 208 211 215 218 222 227 232 237 243 249 254 259 263 267 272 276 278 280 282 284 285 287 288 290 291 293 294 296 297 299 300 302 303 303 304 305 305 306 307 307 308 308 307 307 306 305 304 303 302 301 301 300 299 298 297 296 295 293 292 291 289 288 287 287 286 285 284 283 282 281 280 280 280 280 279 278 277 276 275 274 274 273 273 273 272
201 203 205 208 212 216 220 224 229 235 240 246 252 258 263 267 272 276 279 281 283 285 287 288 290 291 293 294 295 296 298 300 302 303 304 304 305 306 307 308 308 309 309 309 308 307 307 306 306 305 305 304 304 303 302 300 299 298 296 295 293 292 291 289 288 287 286 286 285 284 283 282 281 281 281 281 280 279 278 277 276 276 275 275 274 274 274 274
202 204 206 210 214 218 222 227 232 238 245 251 257 262 266 270 275 279 282 284 286 288 289 291 292 293 295 296 298 300 302 303 303 304 305 306 308 309 309 309 310 310 310 309 309 308 308 308 307 307 306 305 304 303 302 300 299 299 298 296 295 294 293 292 290 289 288 287 285 284 283 280 279 279 279 279 278 277 276 275 275 275 275 274 274 274 273 273
202 204 207 211 216 221 226 231 237 243 249 255 260 265 270 274 278 282 284 286 288 289 291 293 294 295 297 299 301 303 303 304 305 306 308 309 310 310 310 310 310 311 311 311 311 310 310 309 307 306 305 304 303 303 303 302 301 301 301 299 298 297 296 294 292 289 288 287 285 283 281 278 277 277 277 277 276 275 275 274 274 274 274 274 273 273 272 272
202 205 208 212 218 223 229 235 241 246 252 258 264 269 273 278 281 283 286 287 289 292 293 294 296 298 300 302 302 303 305 306 308 310 311 311 311 312 312 313 313 314 313 313 312 311 311 310 310 310 309 309 308 306 305 304 303 302 300 299 297 296 296 296 295 293 291 290 289 286 283 281 279 277 276 276 275 275 274 274 274 274 273 273 273 272 272 272
202 205 209 214 219 225 231 237 243 249 255 261 267 272 276 280 282 284 287 289 291 293 295 297 299 301 302 303 305 306 308 309 310 311 312 313 314 315 316 316 316 316 316 315 314 315 315 316 316 316 316 315 314 312 310 309 307 306 304 302 302 301 300 299 298 298 298 296 294 291 290 288 284 280 278 277 276 276 275 275 274 274 274 273 273 272 272 271
201 205 209 215 221 227 233 239 246 253 260 265 270 275 278 281 283 286 289 290 292 295 297 299 301 303 304 305 306 308 309 311 313 314 316 317 318 318 318 318 318 319 319 319 320 321 321 321 321 321 320 320 319 318 317 316 315 313 312 310 309 307 305 303 301 300 300 300 298 295 295 294 291 288 286 284 282 281 279 279 278 277 276 275 275 274 273 273
201 205 210 216 223 229 236 243 251 257 263 268 273 276 279 282 285 288 290 292 295 298 300 302 303 304 306 308 310 312 314 315 317 318 320 320 321 321 322 323 324 325 326 327 328 328 328 328 328 327 327 326 325 324 322 321 320 317 315 313 311 310 308 306 304 303 302 300 298 297 296 294 292 292 291 289 288 286 285 283 282 281 280 279 278 277 276 276
201 207 212 219 226 233 241 248 255 261 266 271 274 278 281 285 287 289 292 295 298 300 301 303 304 306 308 310 313 316 318 320 322 323 323 323 325 326 329 331 332 333 334 335 335 336 336 335 335 334 332 331 330 328 325 324 322 320 318 316 314 313 312 309 306 306 304 301 299 298 296 294 292 292 291 290 289 288 287 286 286 285 283 282 281 281 280 279
202 208 215 223 230 238 245 252 258 264 268 272 276 280 284 286 289 292 295 297 300 301 303 305 307 309 311 313 315 317 320 323 324 323 324 328 331 334 337 339 340 340 341 341 341 341 341 340 339 338 337 335 332 330 327 326 325 323 321 319 318 317 316 312 309 308 306 303 302 301 299 297 295 294 292 291 290 289 288 287 287 285 284 284 283 283 282 281
203 210 217 225 233 241 248 255 261 266 270 275 279 282 285 288 291 294 297 299 301 304 306 308 311 313 316 319 322 324 325 325 326 330 335 339 341 343 345 345 345 345 346 345 345 345 344 343 341 340 339 336 334 331 329 327 327 327 325 323 321 319 318 315 312 311 309 307 306 304 302 299 297 296 294 292 291 290 289 288 287 287 286 287 286 286 285 284
204 211 218 227 236 244 251 257 263 268 273 278 281 283 287 290 294 296 299 301 304 306 308 311 313 316 321 325 329 332 335 338 343 347 348 349 349 350 350 350 349 349 349 349 348 348 347 345 342 341 340 338 336 334 332 330 329 329 328 326 324 322 320 317 315 313 311 308 306 304 302 300 298 296 294 293 292 291 291 290 290 290 290 290 289 287 286 285
205 213 221 230 239 247 254 261 267 272 276 279 282 286 290 293 296 299 302 305 307 309 311 315 321 329 334 338 342 345 349 352 353 353 354 354 354 353 353 353 353 352 352 352 351 350 348 346 344 343 342 340 338 336 334 332 331 331 331 329 326 324 321 319 316 314 311 309 307 305 304 301 298 296 294 294 295 294 293 293 292 292 291 290 289 287 286 285
209 218 226 235 244 252 259 266 271 275 278 282 286 289 292 296 299 303 306 309 310 312 318 326 335 343 346 349 353 355 357 358 357 357 357 357 357 356 355 355 355 354 354 354 352 351 350 347 345 344 343 342 340 338 336 334 333 333 332 329 326 324 322 319 317 316 314 310 308 307 305 301 298 296 296 297 297 296 295 294 294 293 291 290 288 287 287 287
213 223 232 241 250 258 265 269 273 277 281 284 288 292 297 301 304 307 307 309 314 321 331 339 346 353 355 358 0 1 1 1 0 0 360 359 359 358 356 356 356 356 356 355 354 353 351 349 347 345 344 343 341 340 338 337 335 334 332 330 327 325 324 321 319 318 317 314 312 311 308 305 303 301 300 301 299 298 297 298 297 295 293 292 290 290 289 289
215 227 238 248 258 264 268 271 274 278 282 287 292 298 303 305 305 306 309 320 334 344 352 359 4 5 5 5 5 5 5 4 4 3 2 1 0 359 358 357 356 357 357 356 355 354 352 350 348 347 346 344 342 341 340 338 337 335 334 331 330 328 326 324 322 321 320 318 316 315 311 309 309 307 306 305 302 301 301 300 298 296 294 293 292 292 292 291
221 236 249 258 263 266 268 270 274 279 286 295 301 305 304 302 306 314 329 345 356 4 10 13 12 11 9 8 7 7 7 7 7 6 4 2 1 0 359 358 357 357 357 357 355 355 354 351 350 350 348 345 343 343 341 340 339 338 336 335 333 332 330 328 326 324 323 321 318 316 313 312 312 310 309 307 305 304 303 300 298 296 295 294 294 294 294 293
234 244 252 255 257 259 264 270 278 288 297 303 304 303 300 308 327 342 357 7 11 15 17 15 11 10 9 9 10 10 10 9 8 6 4 3 2 2 0 359 358 358 358 357 357 358 356 353 353 352 351 348 345 344 344 343 343 341 339 338 336 335 333 330 328 326 325 321 319 317 314 312 311 309 308 307 307 306 303 300 298 297 296 296 296 295 294 292
226 233 238 243 251 259 269 279 289 299 303 300 298 301 314 339 356 7 17 21 21 21 18 15 14 13 12 13 13 13 12 10 8 7 5 4 4 3 3 3 3 2 1 359 358 359 358 355 355 355 353 351 348 347 346 346 345 344 341 340 339 338 336 333 330 328 326 322 320 319 316 313 312 311 310 310 310 308 304 302 300 299 299 299 298 297 294 293
211 223 236 247 259 270 280 290 298 301 293 287 313 341 1 16 20 26 30 28 25 23 19 18 18 18 18 17 16 14 12 10 9 8 8 8 8 8 8 9 8 8 7 5 2 1 1 358 358 358 355 354 352 350 349 348 347 346 344 342 341 341 339 335 332 331 329 326 323 322 319 316 315 315 314 313 312 309 306 305 304 304 304 303 301 298 297 297
219 235 248 259 269 280 289 297 295 258 195 90 43 32 38 38 36 36 34 30 27 24 22 22 21 21 20 18 16 14 12 10 10 10 11 10 10 10 10 9 9 9 9 9 6 2 3 2 0 0 358 356 355 354 352 350 349 348 346 344 342 342 343 339 335 334 333 329 326 324 321 318 317 318 318 317 315 313 310 309 309 309 308 306 302 300 299 298
236 248 259 268 277 285 289 252 163 150 114 86 66 54 48 44 42 39 35 31 28 26 25 25 24 22 21 18 16 14 12 11 12 12 12 11 10 10 9 8 7 7 8 10 8 3 2 3 2 1 0 358 357 355 354 353 351 350 348 347 344 344 345 342 339 337 337 333 329 327 323 320 321 322 321 321 319 316 314 313 313 312 310 306 302 300 298 297
244 254 263 268 270 203 139 140 140 118 96 83 66 56 50 46 43 39 35 32 29 28 27 26 25 23 21 18 16 14 14 13 13 13 13 13 12 11 10 9 8 8 8 10 10 6 2 3 3 2 1 360 358 356 355 354 354 352 350 349 347 346 346 344 342 340 340 338 333 329 324 322 324 325 324 323 321 318 317 317 315 314 312 308 306 304 303 303
242 243 226 167 132 126 133 134 117 98 88 75 63 56 49 46 42 39 35 33 30 29 28 26 24 22 20 17 16 15 15 15 14 13 13 12 12 11 10 11 10 9 9 10 12 10 5 3 4 3 2 1 359 358 357 356 355 353 352 351 350 348 346 345 344 341 340 340 337 332 326 325 327 328 327 326 323 321 321 320 318 317 315 313 311 309 308 308
211 171 146 134 127 128 130 116 99 92 82 69 61 54 49 46 42 39 36 34 32 31 29 26 23 21 19 17 16 16 15 15 14 13 12 11 11 11 11 11 10 10 10 10 11 12 8 5 5 5 3 3 1 359 358 357 356 354 353 352 351 350 348 346 345 342 341 340 340 335 329 327 330 331 331 328 325 324 324 323 322 320 318 314 311 310 309 309
147 143 137 130 127 125 113 99 94 88 74 64 58 52 49 46 42 40 37 35 34 33 30 26 23 21 19 18 17 16 15 15 14 13 12 11 10 11 11 11 11 11 11 10 10 12 11 7 6 6 5 4 2 1 359 358 357 355 354 353 352 352 350 347 345 344 343 342 343 340 332 330 333 333 333 330 327 327 327 326 324 321 317 314 312 312 313 312
136 136 132 130 126 115 102 96 91 77 67 63 56 51 49 46 43 40 38 36 35 33 30 26 23 21 20 19 18 16 15 14 14 13 12 12 11 11 11 11 12 11 11 10 10 11 12 9 7 6 5 4 3 2 0 359 358 356 354 353 353 353 352 350 346 345 345 344 345 345 337 333 335 335 334 333 330 330 330 328 326 322 318 316 315 315 314 313
133 131 131 127 117 108 105 95 81 71 66 62 54 50 49 46 43 40 38 37 35 32 29 25 23 21 19 18 16 15 14 13 13 13 13 12 12 11 12 12 12 12 11 11 10 10 11 11 9 7 6 5 3 2 1 0 359 357 355 354 354 353 353 353 350 348 347 346 345 345 340 337 338 338 336 335 333 333 334 333 330 326 322 320 319 317 317 315
130 129 128 118 111 111 102 84 75 72 66 58 53 51 48 45 42 39 37 36 33 31 28 25 23 21 19 16 14 14 13 13 13 13 13 13 12 12 12 12 12 12 12 11 10 10 11 11 10 8 7 6 5 3 1 0 359 358 356 355 355 355 354 354 353 350 349 347 346 345 343 340 340 338 336 336 336 336 337 337 334 329 326 324 322 320 319 318
126 125 121 111 107 104 90 81 79 72 62 56 53 51 47 44 41 38 36 34 32 30 27 25 22 20 18 15 13 13 13 13 13 13 13 13 13 13 13 13 13 13 12 12 10 10 11 12 11 9 8 7 6 4 2 1 0 359 358 357 356 356 355 354 354 353 351 349 348 347 343 340 340 339 337 337 337 338 339 339 336 332 329 328 325 322 322 322
123 121 114 105 101 93 87 87 81 67 60 55 52 49 46 43 40 38 35 32 30 28 27 24 22 20 18 16 14 13 13 13 13 13 13 13 13 13 13 13 13 13 12 12 11 10 10 11 12 11 11 10 8 7 5 4 3 2 360 358 358 357 356 355 354 353 352 351 351 349 344 341 341 340 338 337 338 339 340 341 339 335 332 329 326 325 325 325
122 118 108 101 99 93 90 87 74 64 59 54 51 48 45 42 40 37 34 31 29 28 26 24 22 20 18 16 15 14 14 14 13 13 13 13 13 13 13 13 13 13 12 12 12 10 9 9 10 10 11 12 11 10 8 6 5 4 2 360 359 358 358 356 355 353 352 351 351 351 348 344 343 342 339 338 339 340 342 342 340 337 334 331 328 326 326 326
121 113 105 103 101 94 88 81 69 62 57 53 50 46 44 42 39 36 33 30 29 28 26 24 21 20 18 17 17 16 15 14 14 13 13 13 13 13 13 13 13 13 13 13 13 11 10 9 8 7 8 9 9 9 9 8 6 5 3 1 360 359 359 358 356 355 353 351 350 351 352 348 346 344 342 341 341 342 342 342 340 339 336 332 328 326 326 327
119 111 106 104 99 91 84 75 66 60 56 52 48 44 43 41 38 35 32 30 29 28 26 23 21 19 19 18 17 16 15 14 13 13 13 13 13 13 13 14 14 14 14 13 13 13 11 10 9 9 8 9 9 9 8 8 7 6 5 2 0 0 359 358 358 356 355 353 351 350 352 352 349 347 345 344 343 343 343 342 341 339 336 332 329 328 328 329
116 110 107 103 96 87 78 70 64 60 55 51 46 43 42 40 38 34 31 29 28 27 25 22 20 19 19 18 17 16 14 14 13 14 14 13 13 13 13 14 14 14 14 14 14 13 13 12 11 11 11 11 11 11 9 8 8 7 6 3 1 1 0 359 359 358 357 356 354 352 352 354 352 350 347 346 346 346 345 343 341 339 336 333 331 330 330 332
114 110 107 103 94 82 73 68 63 59 54 49 44 41 40 39 37 33 30 29 27 26 25 23 21 20 19 18 17 15 14 14 14 14 14 13 13 13 14 14 14 14 13 13 13 13 13 13 13 13 13 12 12 12 11 9 8 7 6 5 2 1 1 360 359 359 358 357 357 356 355 356 355 352 349 347 347 348 347 345 343 341 338 336 335 334 333 335
114 110 106 99 87 78 72 66 62 57 53 47 42 40 39 37 35 32 29 28 27 26 25 23 22 20 19 18 17 16 15 14 14 14 14 14 14 13 13 14 14 13 13 12 12 12 13 13 13 13 13 13 13 12 11 10 9 8 7 6 4 2 2 1 360 0 0 359 360 360 358 357 356 354 350 348 347 349 349 348 347 345 342 340 339 337 336 337
115 110 103 92 83 76 70 64 60 56 51 45 41 39 38 36 33 31 28 27 26 25 24 23 22 21 20 19 17 16 15 15 14 14 14 14 14 13 13 13 13 13 12 12 11 11 12 13 13 13 13 13 13 13 12 10 9 8 7 7 5 3 2 2 1 2 3 2 1 1 360 358 357 355 352 349 349 351 352 350 349 348 346 344 342 339 338 339
116 109 99 88 81 74 67 61 58 55 49 43 40 38 36 35 32 30 27 26 25 24 23 23 22 21 20 19 18 17 15 15 15 14 14 14 13 13 13 13 12 12 12 11 11 10 11 12 13 13 13 13 12 13 13 11 10 9 7 7 6 4 3 3 4 3 4 4 2 1 1 360 358 357 355 352 351 352 353 353 351 350 348 346 344 341 340 341
116 107 96 85 78 71 66 61 57 53 47 42 39 36 35 33 31 29 27 26 25 24 24 23 22 21 20 18 17 16 15 15 15 14 14 14 13 13 12 12 12 11 11 11 11 10 10 11 12 12 12 12 12 11 12 12 9 8 7 6 6 6 4 4 6 5 4 4 3 2 1 0 360 359 358 355 352 352 353 354 353 351 349 347 345 343 342 343
115 106 94 83 74 70 65 60 56 52 46 40 37 35 34 32 30 29 27 26 25 24 23 22 21 20 19 18 17 16 15 15 14 14 14 13 12 12 12 11 11 10 10 10 10 10 10 10 11 11 11 11 11 11 10 10 9 7 7 6 6 7 6 5 6 6 5 4 4 3 2 2 1 1 1 358 355 353 353 353 353 352 350 348 346 345 345 345